�N����,����,�~����,�C��,���x,�C��,����,���ϕ���,�ő�u�ԕ���,�ő厞����,���˗�,�I�_���x,�n�����x,�ő啗���N��,DTYPE
"23/11/12","00:10",0.0,9.3,89.5,1015.9,311.7,2.0,2.7,321.6,0.00,7.7,15.0,"00:06:24",1
"23/11/12","00:20",0.0,9.3,89.3,1016.1,304.6,1.8,2.9,316.8,0.00,7.7,14.7,"00:11:04",1
"23/11/12","00:30",0.0,9.2,89.3,1015.4,306.0,1.5,2.8,312.4,0.00,7.6,15.0,"00:22:16",1
"23/11/12","00:40",0.0,8.8,89.3,1015.9,302.3,1.5,2.5,322.3,0.00,7.2,15.0,"00:33:20",1
"23/11/12","00:50",0.0,8.4,89.7,1015.6,301.9,1.6,2.1,287.5,0.00,6.8,14.9,"00:40:56",1
"23/11/12","01:00",0.0,8.5,90.2,1015.2,333.0,0.8,2.5,329.9,0.00,7.0,14.7,"00:51:28",1
"23/11/12","01:10",0.0,8.4,90.5,1014.9,289.7,1.5,2.4,302.5,0.00,7.0,14.8,"01:07:28",1
"23/11/12","01:20",0.0,8.2,90.9,1014.9,293.2,1.7,2.0,308.3,0.00,6.8,14.8,"01:10:56",1
"23/11/12","01:30",0.0,8.4,91.3,1014.9,303.1,1.5,2.0,316.5,0.00,7.1,14.6,"01:24:08",1
"23/11/12","01:40",0.0,8.6,91.6,1014.7,293.8,1.8,2.9,309.1,0.00,7.4,14.8,"01:35:44",1
"23/11/12","01:50",0.0,8.5,91.7,1014.7,297.4,1.2,1.8,308.2,0.00,7.3,14.8,"01:40:48",1
"23/11/12","02:00",0.0,8.5,92.1,1014.2,289.0,1.7,2.0,302.3,0.00,7.3,14.7,"01:57:28",1
"23/11/12","02:10",0.0,8.6,92.4,1014.5,311.4,2.0,3.1,323.4,0.00,7.5,14.7,"02:09:36",1
"23/11/12","02:20",0.0,8.7,92.5,1014.2,297.2,1.3,2.6,304.1,0.00,7.6,14.6,"02:11:28",1
"23/11/12","02:30",0.0,8.6,92.6,1014.5,305.4,1.7,2.0,307.5,0.00,7.5,14.8,"02:23:20",1
"23/11/12","02:40",0.0,8.4,92.8,1014.0,309.6,1.8,2.4,305.5,0.00,7.3,14.6,"02:34:08",1
"23/11/12","02:50",0.0,8.3,93.1,1014.5,287.5,1.7,2.6,309.7,0.00,7.3,14.7,"02:43:20",1
"23/11/12","03:00",0.0,8.4,93.2,1014.0,300.9,2.0,2.8,307.5,0.00,7.4,14.6,"02:54:24",1
"23/11/12","03:10",0.0,8.4,93.4,1014.2,287.7,1.7,2.9,308.7,0.00,7.4,14.6,"03:07:36",1
"23/11/12","03:20",0.0,8.5,93.5,1014.2,297.3,2.1,3.6,304.3,0.00,7.6,14.7,"03:10:24",1
"23/11/12","03:30",0.0,8.6,93.6,1014.5,307.6,0.8,1.6,305.6,0.00,7.7,14.4,"03:23:28",1
"23/11/12","03:40",0.0,8.6,93.6,1014.2,295.3,1.1,2.2,311.2,0.00,7.7,14.4,"03:36:32",1
"23/11/12","03:50",0.0,8.5,93.6,1014.2,304.3,1.8,2.6,324.3,0.00,7.6,14.4,"03:43:36",1
"23/11/12","04:00",0.0,8.4,93.8,1014.5,303.0,2.0,2.5,312.9,0.00,7.5,14.3,"03:55:36",1
"23/11/12","04:10",0.0,8.4,93.9,1014.0,291.1,1.7,2.0,310.0,0.00,7.5,14.5,"04:01:12",1
"23/11/12","04:20",0.0,8.4,94.0,1014.2,302.3,1.8,2.5,313.3,0.00,7.5,14.2,"04:13:20",1
"23/11/12","04:30",0.0,8.3,94.1,1013.8,307.1,2.0,2.7,318.6,0.00,7.4,14.4,"04:21:44",1
"23/11/12","04:40",0.0,8.2,94.2,1013.8,292.7,1.6,2.2,309.5,0.00,7.4,14.4,"04:30:48",1
"23/11/12","04:50",0.0,8.2,94.3,1013.8,293.5,2.0,2.9,315.7,0.00,7.4,14.5,"04:49:36",1
"23/11/12","05:00",0.0,8.1,94.4,1014.2,295.6,1.7,2.5,309.8,0.00,7.3,14.3,"04:58:16",1
"23/11/12","05:10",0.0,8.2,94.5,1014.5,309.2,2.0,2.7,326.8,0.00,7.4,14.3,"05:00:56",1
"23/11/12","05:20",0.0,8.1,94.5,1014.2,305.6,1.8,2.4,307.6,0.00,7.3,14.5,"05:10:16",1
"23/11/12","05:30",0.0,8.0,94.7,1014.0,295.2,1.6,2.2,325.5,0.00,7.2,14.2,"05:20:24",1
"23/11/12","05:40",0.0,8.2,94.8,1014.2,310.3,1.6,2.4,320.9,0.00,7.5,14.2,"05:34:24",1
"23/11/12","05:50",0.0,8.3,94.8,1014.2,316.1,1.7,2.7,316.2,0.00,7.6,14.2,"05:47:44",1
"23/11/12","06:00",0.0,8.2,94.8,1014.0,288.3,1.3,1.9,305.6,0.00,7.5,14.2,"05:50:08",1
"23/11/12","06:10",0.0,8.2,94.9,1014.0,297.6,1.3,2.0,294.6,0.00,7.5,14.1,"06:05:52",1
"23/11/12","06:20",0.0,8.2,95.0,1014.0,315.9,1.2,2.4,324.8,0.00,7.5,14.2,"06:10:02",1
"23/11/12","06:30",0.0,8.1,95.1,1014.0,315.6,2.3,2.8,317.6,0.00,7.4,14.2,"06:21:52",1
"23/11/12","06:40",0.0,8.0,95.3,1014.2,292.6,2.0,2.5,313.6,0.00,7.3,14.2,"06:31:52",1
"23/11/12","06:50",0.0,8.2,95.4,1014.0,289.9,1.3,1.8,283.2,0.00,7.5,14.3,"06:40:16",1
"23/11/12","07:00",0.0,8.5,95.4,1014.0,279.4,1.2,1.4,276.9,0.00,7.8,14.1,"06:51:20",1
"23/11/12","07:10",0.0,8.6,95.5,1014.2,311.3,2.0,2.5,319.9,0.00,8.0,14.1,"07:08:48",1
"23/11/12","07:20",0.0,8.7,95.5,1014.0,298.2,1.3,2.0,305.2,0.00,8.1,14.2,"07:10:16",1
"23/11/12","07:30",0.0,8.8,95.6,1014.5,301.8,2.0,2.6,317.1,0.00,8.2,14.2,"07:27:28",1
"23/11/12","07:40",0.0,9.2,95.6,1014.2,315.2,2.1,3.6,310.3,0.00,8.6,14.1,"07:33:44",1
"23/11/12","07:50",0.0,9.4,95.6,1014.2,315.4,2.1,3.2,320.6,0.00,8.8,14.1,"07:46:32",1
"23/11/12","08:00",0.0,9.7,95.5,1014.5,305.0,1.8,3.3,312.3,0.00,9.1,14.1,"07:51:52",1
"23/11/12","08:10",0.0,9.9,95.4,1014.5,290.2,1.8,2.6,318.4,0.02,9.2,14.2,"08:03:44",1
"23/11/12","08:20",0.0,10.2,95.3,1014.7,274.8,1.5,1.9,274.0,0.04,9.5,14.1,"08:10:24",1
"23/11/12","08:30",0.0,10.3,95.1,1014.5,306.9,1.8,3.3,323.0,0.07,9.6,14.2,"08:27:16",1
"23/11/12","08:40",0.0,10.7,94.8,1014.7,303.0,1.3,1.9,321.4,0.08,9.9,14.1,"08:30:08",1
"23/11/12","08:50",0.0,10.7,94.3,1014.7,323.1,1.3,2.1,334.3,0.06,9.9,14.0,"08:42:10",1
"23/11/12","09:00",0.0,10.8,93.7,1014.7,311.0,1.5,2.1,311.1,0.05,9.9,14.0,"08:52:44",1
"23/11/12","09:10",0.0,10.8,93.1,1014.5,297.1,1.1,1.8,324.5,0.03,9.8,14.0,"09:00:08",1
"23/11/12","09:20",0.0,11.0,92.6,1014.9,271.7,1.0,1.3,274.9,0.05,9.9,14.2,"09:14:16",1
"23/11/12","09:30",0.0,11.0,91.6,1014.9,258.2,1.1,1.8,261.2,0.05,9.7,14.2,"09:21:20",1
"23/11/12","09:40",0.0,11.4,91.0,1014.7,262.8,1.0,1.2,271.9,0.07,10.0,14.1,"09:30:24",1
"23/11/12","09:50",0.0,11.6,90.1,1014.7,293.7,0.8,1.6,328.6,0.08,10.1,14.2,"09:43:40",1
"23/11/12","10:00",0.0,12.0,88.9,1014.5,292.9,0.7,1.4,331.4,0.11,10.3,14.3,"09:55:12",1
"23/11/12","10:10",0.0,12.4,87.3,1014.7,298.6,0.7,1.6,324.2,0.12,10.4,14.4,"10:01:38",1
"23/11/12","10:20",0.0,12.5,85.1,1013.8,265.4,0.6,1.3,233.4,0.14,10.1,14.2,"10:10:02",1
"23/11/12","10:30",0.0,12.7,83.8,1013.8,285.6,0.6,1.7,236.9,0.12,10.1,14.1,"10:20:16",1
"23/11/12","10:40",0.0,12.9,82.2,1014.0,262.4,0.6,1.3,350.2,0.15,10.0,14.4,"10:30:52",1
"23/11/12","10:50",0.0,13.3,80.0,1014.0,4.4,0.6,1.6,244.1,0.15,10.0,14.5,"10:49:12",1
"23/11/12","11:00",0.0,13.3,78.4,1013.3,199.4,0.6,1.2,150.2,0.15,9.7,14.4,"10:59:44",1
"23/11/12","11:10",0.0,13.4,77.1,1013.3,191.4,0.5,1.3,144.5,0.13,9.5,14.3,"11:07:04",1
"23/11/12","11:20",0.0,14.0,76.8,1013.0,314.1,0.6,1.3,334.9,0.21,10.0,14.6,"11:17:52",1
"23/11/12","11:30",0.0,14.6,74.3,1012.8,258.8,0.7,1.8,210.6,0.29,10.1,14.4,"11:25:12",1
"23/11/12","11:40",0.0,14.3,73.1,1012.6,198.3,0.5,1.3,153.8,0.11,9.6,14.6,"11:34:48",1
"23/11/12","11:50",0.0,14.1,73.9,1012.1,227.8,0.7,1.7,211.4,0.12,9.6,14.6,"11:43:36",1
"23/11/12","12:00",0.0,14.3,74.8,1011.9,334.5,0.6,1.4,323.4,0.21,9.9,14.6,"11:53:28",1
"23/11/12","12:10",0.0,15.0,73.7,1011.6,171.4,0.7,2.2,230.1,0.24,10.4,14.8,"12:00:02",1
"23/11/12","12:20",0.0,14.6,74.2,1011.6,209.4,1.2,2.7,214.0,0.17,10.1,14.7,"12:13:52",1
"23/11/12","12:30",0.0,14.5,74.7,1011.6,224.7,0.8,2.2,236.3,0.12,10.1,14.7,"12:29:28",1
"23/11/12","12:40",0.0,14.5,75.1,1010.9,175.9,0.6,1.6,129.5,0.08,10.2,14.7,"12:33:52",1
"23/11/12","12:50",0.0,14.5,75.8,1010.9,103.5,0.5,1.6,103.9,0.07,10.3,14.7,"12:43:20",1
"23/11/12","13:00",0.0,14.6,76.0,1010.7,256.7,0.5,1.0,135.7,0.07,10.5,15.0,"12:53:04",1
"23/11/12","13:10",0.0,14.4,75.8,1011.2,338.2,0.6,1.6,333.0,0.05,10.2,14.9,"13:07:04",1
"23/11/12","13:20",0.0,14.5,77.2,1010.9,334.0,1.2,2.0,343.9,0.06,10.6,14.9,"13:13:54",1
"23/11/12","13:30",0.0,14.5,78.5,1010.7,325.4,1.2,2.4,325.9,0.09,10.8,14.8,"13:28:52",1
"23/11/12","13:40",0.0,14.9,78.6,1010.2,298.2,0.6,1.3,323.0,0.13,11.3,14.8,"13:31:28",1
"23/11/12","13:50",0.0,15.0,77.7,1010.2,260.1,0.3,1.1,332.7,0.09,11.2,14.9,"13:48:56",1
"23/11/12","14:00",0.0,15.0,76.3,1010.4,280.4,0.8,1.7,293.9,0.08,10.9,15.0,"13:59:36",1
"23/11/12","14:10",0.0,14.8,76.0,1010.7,244.8,1.7,2.7,226.6,0.07,10.7,15.2,"14:04:24",1
"23/11/12","14:20",0.0,14.6,76.2,1010.4,248.4,2.1,3.7,238.2,0.06,10.5,15.1,"14:18:54",1
"23/11/12","14:30",0.0,14.4,77.3,1010.2,241.2,2.3,3.3,226.5,0.05,10.5,15.1,"14:21:20",1
"23/11/12","14:40",0.0,14.4,78.0,1010.2,246.8,1.8,3.9,232.0,0.05,10.7,15.1,"14:33:54",1
"23/11/12","14:50",0.0,14.3,79.0,1010.0,237.3,1.6,3.3,228.6,0.04,10.8,15.0,"14:42:40",1
"23/11/12","15:00",0.0,14.3,79.5,1009.7,245.2,1.6,2.5,227.0,0.05,10.8,15.3,"14:58:36",1
"23/11/12","15:10",0.0,14.3,79.7,1010.2,251.2,1.5,2.5,228.3,0.04,10.9,15.1,"15:03:56",1
"23/11/12","15:20",0.0,14.2,80.0,1009.7,254.1,1.5,2.5,243.8,0.03,10.8,14.9,"15:16:16",1
"23/11/12","15:30",0.0,14.2,80.1,1009.7,268.1,1.0,2.2,255.0,0.03,10.9,15.2,"15:22:14",1
"23/11/12","15:40",0.0,14.2,80.6,1009.7,262.8,1.0,1.7,251.0,0.02,11.0,15.1,"15:35:20",1
"23/11/12","15:50",0.0,14.1,80.8,1009.3,293.1,1.2,2.1,323.8,0.02,10.9,15.1,"15:43:12",1
"23/11/12","16:00",0.0,14.0,80.9,1009.5,276.3,1.0,1.4,266.2,0.01,10.8,14.9,"15:53:16",1
"23/11/12","16:10",0.0,14.1,81.0,1009.7,297.6,1.2,1.8,313.1,0.01,10.9,15.1,"16:07:06",1
"23/11/12","16:20",0.0,14.0,81.2,1009.3,273.5,1.3,2.0,327.5,0.00,10.9,15.1,"16:10:20",1
"23/11/12","16:30",0.0,13.8,81.5,1009.5,260.3,1.2,2.2,257.8,0.00,10.7,15.1,"16:25:36",1
"23/11/12","16:40",0.0,13.8,81.7,1009.7,264.2,1.2,2.5,244.3,0.00,10.8,15.2,"16:30:08",1
"23/11/12","16:50",0.0,13.7,82.0,1009.0,250.2,1.3,2.2,240.7,0.00,10.7,15.2,"16:44:08",1
"23/11/12","17:00",0.0,13.4,82.3,1009.5,260.9,1.2,2.0,248.4,0.00,10.5,15.2,"16:50:40",1
"23/11/12","17:10",0.0,13.3,82.8,1009.5,280.3,1.0,1.6,263.9,0.00,10.5,15.2,"17:07:30",1
"23/11/12","17:20",0.0,13.1,83.4,1009.0,289.7,1.3,2.2,319.5,0.00,10.4,15.2,"17:16:52",1
"23/11/12","17:30",0.0,13.0,83.5,1009.5,289.3,1.5,2.8,307.3,0.00,10.3,15.0,"17:25:50",1
"23/11/12","17:40",0.0,12.9,83.2,1009.3,290.9,1.6,3.1,259.1,0.00,10.2,15.0,"17:32:12",1
"23/11/12","17:50",0.0,12.8,83.2,1009.7,310.9,2.0,3.1,330.6,0.00,10.1,15.3,"17:44:20",1
"23/11/12","18:00",0.0,12.8,83.4,1010.0,313.4,1.7,3.3,312.9,0.00,10.1,15.0,"17:56:24",1
"23/11/12","18:10",0.0,12.6,83.4,1010.0,303.3,1.5,2.6,324.8,0.00,9.9,15.1,"18:03:22",1
"23/11/12","18:20",0.0,12.6,81.7,1009.7,291.1,1.7,3.1,301.0,0.00,9.6,15.2,"18:13:34",1
"23/11/12","18:30",0.0,12.7,78.9,1010.0,272.4,2.3,5.0,275.9,0.00,9.2,15.0,"18:21:36",1
"23/11/12","18:40",0.0,12.6,78.1,1010.2,282.2,1.8,3.7,286.6,0.00,8.9,15.1,"18:35:02",1
"23/11/12","18:50",0.0,12.4,78.7,1010.0,292.0,1.7,2.8,296.2,0.00,8.8,15.2,"18:49:42",1
"23/11/12","19:00",0.0,12.1,79.4,1009.7,305.7,1.3,3.1,283.8,0.00,8.7,15.0,"18:51:20",1
"23/11/12","19:10",0.0,11.4,80.6,1009.5,276.1,0.8,1.8,268.2,0.00,8.2,14.9,"19:06:02",1
"23/11/12","19:20",0.0,11.0,82.1,1009.7,294.1,0.5,1.1,307.8,0.00,8.1,14.9,"19:10:16",1
"23/11/12","19:30",0.0,10.7,83.5,1010.2,281.0,0.6,1.1,275.2,0.00,8.1,15.1,"19:24:32",1
"23/11/12","19:40",0.0,10.7,84.6,1009.5,274.4,0.2,1.0,320.7,0.00,8.3,14.8,"19:38:24",1
"23/11/12","19:50",0.0,10.5,85.2,1009.5,312.9,1.5,3.1,316.0,0.00,8.2,14.9,"19:47:36",1
"23/11/12","20:00",0.0,10.0,86.2,1009.7,313.8,1.8,2.9,314.4,0.00,7.8,15.0,"19:53:12",1
"23/11/12","20:10",0.0,9.6,87.1,1009.5,297.5,1.3,2.0,280.3,0.00,7.6,14.8,"20:01:52",1
"23/11/12","20:20",0.0,9.5,87.9,1009.5,311.3,1.5,2.6,358.7,0.00,7.6,14.9,"20:14:00",1
"23/11/12","20:30",0.0,8.9,88.7,1010.0,302.4,1.5,2.2,265.7,0.00,7.2,14.6,"20:20:16",1
"23/11/12","20:40",0.0,8.6,89.1,1009.7,297.0,1.6,2.2,316.9,0.00,6.9,14.7,"20:31:04",1
"23/11/12","20:50",0.0,8.5,89.9,1009.7,315.1,2.0,2.9,322.5,0.00,7.0,14.6,"20:43:44",1
"23/11/12","21:00",0.0,8.3,90.4,1009.3,302.1,1.7,2.4,320.4,0.00,6.9,14.7,"20:58:00",1
"23/11/12","21:10",0.0,8.0,90.9,1009.5,307.4,1.8,3.2,327.2,0.00,6.6,14.7,"21:05:36",1
"23/11/12","21:20",0.0,7.7,91.3,1009.3,284.3,1.2,1.9,309.3,0.00,6.4,14.5,"21:12:32",1
"23/11/12","21:30",0.0,8.2,92.0,1009.3,310.9,2.0,4.0,316.1,0.00,7.0,14.6,"21:25:52",1
"23/11/12","21:40",0.0,8.3,92.8,1009.3,287.4,1.3,3.1,311.2,0.00,7.2,14.3,"21:35:36",1
"23/11/12","21:50",0.0,9.6,92.7,1009.3,263.4,2.3,4.5,232.2,0.00,8.5,14.3,"21:48:32",1
"23/11/12","22:00",0.0,9.9,91.8,1009.0,256.2,2.6,5.1,236.8,0.00,8.7,14.3,"21:53:52",1
"23/11/12","22:10",0.0,9.7,91.4,1009.5,266.4,2.1,4.8,245.8,0.00,8.4,14.3,"22:04:24",1
"23/11/12","22:20",0.0,9.7,90.4,1009.0,256.0,2.5,5.4,253.7,0.00,8.2,14.3,"22:15:20",1
"23/11/12","22:30",0.0,9.5,89.6,1009.0,261.5,1.7,4.1,248.5,0.00,7.9,14.6,"22:22:16",1
"23/11/12","22:40",0.0,9.2,89.1,1009.0,242.4,1.5,4.5,244.3,0.00,7.5,14.3,"22:39:36",1
"23/11/12","22:50",0.0,9.4,87.7,1009.0,234.6,2.7,5.6,238.5,0.00,7.5,14.2,"22:43:52",1
"23/11/12","23:00",0.0,9.3,86.1,1008.8,252.5,2.6,5.0,245.3,0.00,7.1,14.1,"22:53:20",1
"23/11/12","23:10",0.0,9.3,84.8,1009.0,276.5,2.0,4.8,301.3,0.00,6.9,14.2,"23:09:56",1
"23/11/12","23:20",0.0,9.2,83.5,1008.8,283.8,2.3,4.8,321.8,0.00,6.6,14.3,"23:16:56",1
"23/11/12","23:30",0.0,9.2,82.2,1008.6,271.3,2.2,4.0,312.8,0.00,6.4,14.1,"23:20:16",1
"23/11/12","23:40",0.0,8.8,81.8,1008.6,274.0,1.2,3.1,240.8,0.00,5.9,14.1,"23:37:20",1
"23/11/12","23:50",0.0,8.9,81.4,1008.8,304.5,2.7,4.9,314.4,0.00,5.9,14.2,"23:48:40",1
"23/11/12","24:00",0.0,8.8,80.7,1008.8,292.2,2.2,4.4,248.6,0.00,5.7,14.2,"23:51:12",1
